Skip Page Navigation
NASA JPL Caltech
NASA Logo - Jet Propulsion Laboratory + View the NASA Portal
+ Near-Earth Object (NEO) Program
Search JPL
JPL Home Earth Solar System Stars & Galaxies Technology
JPL Solar System Dynamics
BODIES ORBITS EPHEMERIDES TOOLS PHYSICAL DATA DISCOVERY FAQ SITE MAP
JPL Small-Body Database Browser
Search: [ help ]  
135268 Haignere (2001 SX115)
Classification: Main-belt Asteroid          SPK-ID: 2135268
Ephemeris | Orbit Diagram | Orbital Elements | Physical Parameters | Discovery Circumstances | Close-Approach Data ]

[ show orbit diagram ]
Orbital Elements at Epoch 2457000.5 (2014-Dec-09.0) TDB
Reference: JPL 10 (heliocentric ecliptic J2000)
 Element Value Uncertainty (1-sigma)   Units 
e .2982198439558279 7.8199e-08  
a 3.081877107615895 2.2904e-08 AU
q 2.162800197491645 2.3603e-07 AU
i 1.584546325041745 7.5862e-06 deg
node 15.37170245076609 0.00020099 deg
peri 25.09787966777576 0.00020122 deg
M 144.7779547703018 9.4666e-06 deg
tp 2456205.766831907526
(2012-Oct-05.26683191)
4.822e-05 JED
period 1976.156804861695
5.41
2.203e-05
6.031e-08
d
yr
n .1821717786333232 2.0308e-09 deg/d
Q 4.000954017740145 2.9734e-08 AU
  Orbit Determination Parameters
   # obs. used (total)      548  
   data-arc span      6699 days (18.34 yr)  
   first obs. used      1997-01-06  
   last obs. used      2015-05-11  
   planetary ephem.      DE431  
   SB-pert. ephem.      SB431-BIG16  
   condition code      0  
   fit RMS      .56818  
   data source      ORB  
   producer      Otto Matic  
   solution date      2015-Jun-04 20:53:15  

Additional Information
 Earth MOID = 1.17082 AU 
 T_jup = 3.157 
[ show covariance matrix ]

Ephemeris | Orbit Diagram | Orbital Elements | Physical Parameters | Discovery Circumstances | Close-Approach Data ]

Physical Parameter Table
Parameter Symbol Value Units Sigma Reference Notes
absolute magnitude H 14.7 mag n/a MPO338179  

135268 Haigneré           Discovered 2001 Sept. 20 by J.-C. Merlin at Le Creusot.
Claudie (b. 1957) and Jean-Pierre Haigneré (b. 1948) are both members of the European Space Agency corps of astronauts. Claudie flew aboard the MIR station in 1996 and the ISS in 2001. Jean-Pierre flew aboard MIR in 1993 and 1999. Claudie was born in Le Creusot, where this minor planet was discovered.
NOTE: some special characters may not display properly (any characters within {} are an attempt to place the proper accent above a character)
Reference: 20061109/MPCPages.arcLast Updated: 2006-11-13

[ show close-approach data ]
Ephemeris | Orbit Diagram | Orbital Elements | Physical Parameters | Discovery Circumstances | Close-Approach Data ]
ABOUT SSD CREDITS/AWARDS PRIVACY/COPYRIGHT GLOSSARY LINKS
FirstGov 2015-Sep-03 04:30 UT
(server date/time)  
NASA Home Page
Site Manager:   Ryan S. Park
Webmaster  Alan B. Chamberlin